Time,TemperatureF,DewpointF,PressureIn,WindDirection,WindDirectionDegrees,WindSpeedMPH,WindSpeedGustMPH,Humidity,HourlyPrecipIn,Conditions,Clouds,dailyrainin,SoftwareType,DateUTC
2013-10-19 00:09:00,39.8,37.0,29.99,West,277,0.0,-999.0,91,-99.99,,,0.00,weatherlink.com 1.10,2013-10-19 04:09:00,
2013-10-19 00:24:00,39.6,37.0,29.99,West,277,0.0,-999.0,91,-99.99,,,0.00,weatherlink.com 1.10,2013-10-19 04:24:00,
2013-10-19 00:39:00,39.3,37.0,29.98,West,277,0.0,-999.0,91,-99.99,,,0.00,weatherlink.com 1.10,2013-10-19 04:39:00,
2013-10-19 00:54:00,39.2,37.0,29.99,West,277,0.0,-999.0,92,-99.99,,,0.00,weatherlink.com 1.10,2013-10-19 04:54:00,
2013-10-19 01:09:00,38.8,36.0,29.98,West,277,0.0,-999.0,91,-99.99,,,0.00,weatherlink.com 1.10,2013-10-19 05:09:00,
2013-10-19 01:24:00,38.6,36.0,29.99,West,277,0.0,-999.0,91,-99.99,,,0.00,weatherlink.com 1.10,2013-10-19 05:24:00,
2013-10-19 01:39:00,38.4,36.0,29.99,West,277,0.0,-999.0,91,-99.99,,,0.00,weatherlink.com 1.10,2013-10-19 05:39:00,
2013-10-19 01:55:00,38.2,36.0,29.99,West,277,0.0,-999.0,92,-99.99,,,0.00,weatherlink.com 1.10,2013-10-19 05:55:00,
2013-10-19 02:10:00,38.0,36.0,29.99,West,277,0.0,-999.0,92,-99.99,,,0.00,weatherlink.com 1.10,2013-10-19 06:10:00,
2013-10-19 02:25:00,37.8,36.0,29.99,West,277,0.0,-999.0,92,-99.99,,,0.00,weatherlink.com 1.10,2013-10-19 06:25:00,
2013-10-19 02:40:00,37.6,36.0,29.98,West,277,0.0,-999.0,92,-99.99,,,0.00,weatherlink.com 1.10,2013-10-19 06:40:00,
2013-10-19 02:55:00,37.4,35.0,29.99,West,277,0.0,-999.0,92,-99.99,,,0.00,weatherlink.com 1.10,2013-10-19 06:55:00,
2013-10-19 03:10:00,37.3,35.0,29.99,West,277,0.0,-999.0,92,-99.99,,,0.00,weatherlink.com 1.10,2013-10-19 07:10:00,
2013-10-19 03:25:00,37.0,35.0,29.98,West,277,0.0,-999.0,92,-99.99,,,0.00,weatherlink.com 1.10,2013-10-19 07:25:00,
2013-10-19 03:40:00,36.8,35.0,29.98,West,277,0.0,-999.0,92,-99.99,,,0.00,weatherlink.com 1.10,2013-10-19 07:40:00,
2013-10-19 03:55:00,36.6,35.0,29.98,West,277,0.0,-999.0,92,-99.99,,,0.00,weatherlink.com 1.10,2013-10-19 07:55:00,
2013-10-19 04:10:00,36.5,34.0,29.99,West,277,0.0,-999.0,92,-99.99,,,0.00,weatherlink.com 1.10,2013-10-19 08:10:00,
2013-10-19 04:25:00,36.2,34.0,29.99,West,277,0.0,-999.0,92,-99.99,,,0.00,weatherlink.com 1.10,2013-10-19 08:25:00,
2013-10-19 04:40:00,36.2,34.0,29.98,West,277,0.0,-999.0,93,-99.99,,,0.00,weatherlink.com 1.10,2013-10-19 08:40:00,
2013-10-19 04:55:00,36.4,35.0,29.97,West,277,0.0,-999.0,93,-99.99,,,0.00,weatherlink.com 1.10,2013-10-19 08:55:00,
2013-10-19 05:10:00,36.9,35.0,29.96,West,277,0.0,-999.0,93,-99.99,,,0.00,weatherlink.com 1.10,2013-10-19 09:10:00,
2013-10-19 05:25:00,37.3,36.0,29.97,West,277,0.0,-999.0,93,-99.99,,,0.00,weatherlink.com 1.10,2013-10-19 09:25:00,
2013-10-19 05:40:00,37.5,36.0,29.97,West,277,0.0,-999.0,93,-99.99,,,0.00,weatherlink.com 1.10,2013-10-19 09:40:00,
2013-10-19 05:55:00,38.0,37.0,29.98,West,277,0.0,-999.0,94,-99.99,,,0.00,weatherlink.com 1.10,2013-10-19 09:55:00,
2013-10-19 06:10:00,38.2,37.0,29.97,West,277,0.0,-999.0,94,-99.99,,,0.00,weatherlink.com 1.10,2013-10-19 10:10:00,
2013-10-19 06:25:00,38.2,37.0,29.97,West,277,0.0,-999.0,94,-99.99,,,0.00,weatherlink.com 1.10,2013-10-19 10:25:00,
2013-10-19 06:40:00,38.2,37.0,29.96,West,277,0.0,-999.0,94,-99.99,,,0.00,weatherlink.com 1.10,2013-10-19 10:40:00,
2013-10-19 06:55:00,38.3,37.0,29.96,West,277,0.0,-999.0,94,-99.99,,,0.00,weatherlink.com 1.10,2013-10-19 10:55:00,
2013-10-19 07:10:00,38.5,37.0,29.96,West,277,0.0,-999.0,94,-99.99,,,0.00,weatherlink.com 1.10,2013-10-19 11:10:00,
2013-10-19 07:25:00,38.7,37.0,29.96,West,277,0.0,-999.0,94,-99.99,,,0.00,weatherlink.com 1.10,2013-10-19 11:25:00,
2013-10-19 07:40:00,38.8,37.0,29.96,West,277,0.0,-999.0,94,-99.99,,,0.00,weatherlink.com 1.10,2013-10-19 11:40:00,
2013-10-19 07:55:00,38.8,37.0,29.95,West,277,0.0,-999.0,94,-99.99,,,0.00,weatherlink.com 1.10,2013-10-19 11:55:00,
2013-10-19 08:10:00,39.0,38.0,29.96,West,277,0.0,-999.0,94,-99.99,,,0.00,weatherlink.com 1.10,2013-10-19 12:10:00,
2013-10-19 08:25:00,39.3,38.0,29.96,West,277,0.0,-999.0,94,-99.99,,,0.00,weatherlink.com 1.10,2013-10-19 12:25:00,
2013-10-19 08:40:00,39.4,38.0,29.96,West,279,0.0,-999.0,94,-99.99,,,0.00,weatherlink.com 1.10,2013-10-19 12:40:00,
2013-10-19 08:55:00,39.8,38.0,29.95,West,279,0.0,-999.0,94,-99.99,,,0.00,weatherlink.com 1.10,2013-10-19 12:55:00,
2013-10-19 09:10:00,40.2,39.0,29.95,West,279,0.0,-999.0,95,-99.99,,,0.00,weatherlink.com 1.10,2013-10-19 13:10:00,
2013-10-19 09:25:00,40.8,40.0,29.96,West,279,0.0,-999.0,95,-99.99,,,0.00,weatherlink.com 1.10,2013-10-19 13:25:00,
2013-10-19 09:40:00,41.4,40.0,29.95,West,279,0.0,-999.0,95,-99.99,,,0.00,weatherlink.com 1.10,2013-10-19 13:40:00,
2013-10-19 09:55:00,42.5,41.0,29.94,ENE,58,1.0,-999.0,95,-99.99,,,0.00,weatherlink.com 1.10,2013-10-19 13:55:00,
2013-10-19 10:10:00,43.9,43.0,29.94,NE,51,0.0,-999.0,95,-99.99,,,0.00,weatherlink.com 1.10,2013-10-19 14:10:00,
2013-10-19 10:25:00,45.6,44.0,29.93,NE,52,0.0,-999.0,94,-99.99,,,0.00,weatherlink.com 1.10,2013-10-19 14:25:00,
2013-10-19 10:40:00,47.4,46.0,29.93,West,266,0.0,-999.0,93,-99.99,,,0.00,weatherlink.com 1.10,2013-10-19 14:40:00,
2013-10-19 10:55:00,48.6,46.0,29.92,West,266,0.0,-999.0,92,-99.99,,,0.00,weatherlink.com 1.10,2013-10-19 14:55:00,
2013-10-19 11:10:00,50.4,47.0,29.91,ENE,78,0.0,-999.0,88,-99.99,,,0.00,weatherlink.com 1.10,2013-10-19 15:10:00,
2013-10-19 11:26:00,53.0,49.0,29.90,ENE,59,0.0,-999.0,85,-99.99,,,0.00,weatherlink.com 1.10,2013-10-19 15:26:00,
2013-10-19 11:41:00,55.0,48.0,29.89,ENE,61,2.0,-999.0,78,-99.99,,,0.00,weatherlink.com 1.10,2013-10-19 15:41:00,
2013-10-19 11:56:00,57.5,49.0,29.88,South,178,0.0,-999.0,72,-99.99,,,0.00,weatherlink.com 1.10,2013-10-19 15:56:00,
2013-10-19 12:11:00,60.3,47.0,29.87,SW,229,0.0,-999.0,62,-99.99,,,0.00,weatherlink.com 1.10,2013-10-19 16:11:00,
2013-10-19 12:26:00,61.6,47.0,29.86,SW,225,2.0,-999.0,60,-99.99,,,0.00,weatherlink.com 1.10,2013-10-19 16:26:00,
2013-10-19 12:41:00,62.3,47.0,29.86,SW,223,3.0,-999.0,58,-99.99,,,0.00,weatherlink.com 1.10,2013-10-19 16:41:00,
2013-10-19 12:56:00,62.1,47.0,29.87,South,169,4.0,-999.0,58,-99.99,,,0.00,weatherlink.com 1.10,2013-10-19 16:56:00,
2013-10-19 13:11:00,61.6,46.0,29.86,SSW,194,1.0,-999.0,58,-99.99,,,0.00,weatherlink.com 1.10,2013-10-19 17:11:00,
2013-10-19 13:26:00,61.2,47.0,29.86,SE,143,4.0,-999.0,59,-99.99,,,0.00,weatherlink.com 1.10,2013-10-19 17:26:00,
2013-10-19 13:41:00,61.1,46.0,29.84,East,82,2.0,-999.0,59,-99.99,,,0.00,weatherlink.com 1.10,2013-10-19 17:41:00,
2013-10-19 13:56:00,60.4,45.0,29.82,ESE,122,2.0,-999.0,58,-99.99,,,0.00,weatherlink.com 1.10,2013-10-19 17:56:00,
2013-10-19 14:11:00,59.5,47.0,29.81,South,180,2.0,-999.0,63,-99.99,,,0.00,weatherlink.com 1.10,2013-10-19 18:11:00,
2013-10-19 14:26:00,58.8,48.0,29.80,SSE,167,1.0,-999.0,67,-99.99,,,0.01,weatherlink.com 1.10,2013-10-19 18:26:00,
2013-10-19 14:41:00,58.1,48.0,29.79,South,172,0.0,-999.0,68,-99.99,,,0.01,weatherlink.com 1.10,2013-10-19 18:41:00,
2013-10-19 14:56:00,57.8,48.0,29.79,South,172,0.0,-999.0,69,-99.99,,,0.01,weatherlink.com 1.10,2013-10-19 18:56:00,
2013-10-19 15:11:00,57.7,47.0,29.79,South,177,0.0,-999.0,68,-99.99,,,0.01,weatherlink.com 1.10,2013-10-19 19:11:00,
2013-10-19 15:26:00,57.6,47.0,29.79,NE,55,0.0,-999.0,67,-99.99,,,0.01,weatherlink.com 1.10,2013-10-19 19:26:00,
2013-10-19 15:41:00,57.6,47.0,29.79,NE,53,0.0,-999.0,69,-99.99,,,0.01,weatherlink.com 1.10,2013-10-19 19:41:00,
2013-10-19 15:56:00,57.5,48.0,29.79,SSW,211,0.0,-999.0,70,-99.99,,,0.01,weatherlink.com 1.10,2013-10-19 19:56:00,
2013-10-19 16:11:00,57.4,48.0,29.79,WSW,241,0.0,-999.0,72,-99.99,,,0.01,weatherlink.com 1.10,2013-10-19 20:11:00,
2013-10-19 16:26:00,57.1,49.0,29.79,WSW,241,0.0,-999.0,75,-99.99,,,0.02,weatherlink.com 1.10,2013-10-19 20:26:00,
2013-10-19 16:41:00,56.5,50.0,29.77,WSW,241,0.0,-999.0,78,-99.99,,,0.02,weatherlink.com 1.10,2013-10-19 20:41:00,
2013-10-19 16:56:00,56.2,49.0,29.76,SE,135,0.0,-999.0,77,-99.99,,,0.02,weatherlink.com 1.10,2013-10-19 20:56:00,
2013-10-19 17:11:00,56.4,49.0,29.76,SSE,157,0.0,-999.0,77,-99.99,,,0.02,weatherlink.com 1.10,2013-10-19 21:11:00,
2013-10-19 17:26:00,56.6,49.0,29.75,SSE,157,0.0,-999.0,77,-99.99,,,0.02,weatherlink.com 1.10,2013-10-19 21:26:00,
2013-10-19 17:41:00,56.5,50.0,29.74,SSE,157,0.0,-999.0,78,-99.99,,,0.02,weatherlink.com 1.10,2013-10-19 21:41:00,
2013-10-19 17:56:00,56.0,50.0,29.75,SSE,156,0.0,-999.0,79,-99.99,,,0.02,weatherlink.com 1.10,2013-10-19 21:56:00,
2013-10-19 18:11:00,55.7,50.0,29.75,SSE,156,0.0,-999.0,80,-99.99,,,0.03,weatherlink.com 1.10,2013-10-19 22:11:00,
2013-10-19 18:26:00,55.2,50.0,29.77,WSW,257,2.0,-999.0,83,-99.99,,,0.05,weatherlink.com 1.10,2013-10-19 22:26:00,
2013-10-19 18:41:00,54.0,50.0,29.76,ENE,64,0.0,-999.0,86,-99.99,,,0.08,weatherlink.com 1.10,2013-10-19 22:41:00,
2013-10-19 18:56:00,53.5,50.0,29.76,ENE,64,0.0,-999.0,87,-99.99,,,0.09,weatherlink.com 1.10,2013-10-19 22:56:00,
2013-10-19 19:11:00,53.0,50.0,29.76,WNW,286,0.0,-999.0,88,-99.99,,,0.09,weatherlink.com 1.10,2013-10-19 23:11:00,
2013-10-19 19:26:00,52.7,50.0,29.77,WNW,286,0.0,-999.0,89,-99.99,,,0.09,weatherlink.com 1.10,2013-10-19 23:26:00,
2013-10-19 19:41:00,52.6,50.0,29.77,WNW,286,0.0,-999.0,90,-99.99,,,0.09,weatherlink.com 1.10,2013-10-19 23:41:00,
2013-10-19 19:56:00,52.4,50.0,29.77,WNW,286,0.0,-999.0,90,-99.99,,,0.10,weatherlink.com 1.10,2013-10-19 23:56:00,
2013-10-19 20:11:00,52.4,50.0,29.77,West,274,0.0,-999.0,91,-99.99,,,0.11,weatherlink.com 1.10,2013-10-20 00:11:00,
2013-10-19 20:26:00,52.2,50.0,29.75,West,274,0.0,-999.0,91,-99.99,,,0.11,weatherlink.com 1.10,2013-10-20 00:26:00,
2013-10-19 20:41:00,51.9,50.0,29.74,ENE,66,0.0,-999.0,92,-99.99,,,0.11,weatherlink.com 1.10,2013-10-20 00:41:00,
2013-10-19 20:56:00,51.9,50.0,29.75,ENE,66,0.0,-999.0,92,-99.99,,,0.11,weatherlink.com 1.10,2013-10-20 00:56:00,
2013-10-19 21:11:00,51.8,50.0,29.76,ENE,66,0.0,-999.0,92,-99.99,,,0.11,weatherlink.com 1.10,2013-10-20 01:11:00,
2013-10-19 21:15:00,51.8,49.5,29.76,ENE,66,0.0,0.0,92,0.00,,,0.11,Wunderground v.1.15,2013-10-20 01:15:00,
2013-10-19 21:20:00,51.8,49.5,29.76,ENE,66,0.0,0.0,92,0.00,,,0.11,Wunderground v.1.15,2013-10-20 01:20:00,
2013-10-19 21:25:00,51.7,49.5,29.77,ENE,66,0.0,0.0,92,0.00,,,0.11,Wunderground v.1.15,2013-10-20 01:25:00,
2013-10-19 21:27:00,51.7,50.0,29.77,ENE,66,0.0,-999.0,92,-99.99,,,0.11,weatherlink.com 1.10,2013-10-20 01:27:00,
2013-10-19 21:35:00,51.5,49.3,29.77,ENE,66,0.0,0.0,92,0.00,,,0.11,Wunderground v.1.15,2013-10-20 01:35:00,
2013-10-19 21:40:00,51.4,49.2,29.77,ENE,66,0.0,0.0,92,0.00,,,0.11,Wunderground v.1.15,2013-10-20 01:40:00,
2013-10-19 21:42:00,51.4,49.0,29.77,ENE,66,0.0,-999.0,92,-99.99,,,0.11,weatherlink.com 1.10,2013-10-20 01:42:00,
2013-10-19 21:50:00,51.1,48.9,29.77,ENE,66,0.0,0.0,92,0.00,,,0.11,Wunderground v.1.15,2013-10-20 01:50:00,
2013-10-19 21:58:00,50.8,49.0,29.78,ENE,66,0.0,-999.0,92,-99.99,,,0.11,weatherlink.com 1.10,2013-10-20 01:58:00,
2013-10-19 22:00:00,50.5,48.3,29.77,ENE,66,0.0,0.0,92,0.00,,,0.11,Wunderground v.1.15,2013-10-20 02:00:00,
2013-10-19 22:05:00,50.3,48.1,29.78,ENE,66,0.0,0.0,92,0.00,,,0.11,Wunderground v.1.15,2013-10-20 02:05:00,
2013-10-19 22:11:00,49.9,47.0,29.78,ENE,66,0.0,-999.0,91,-99.99,,,0.11,weatherlink.com 1.10,2013-10-20 02:11:00,
2013-10-19 22:15:00,49.7,47.2,29.78,ENE,66,0.0,0.0,91,0.00,,,0.11,Wunderground v.1.15,2013-10-20 02:15:00,
2013-10-19 22:27:00,49.0,47.0,29.79,ENE,66,0.0,-999.0,91,-99.99,,,0.11,weatherlink.com 1.10,2013-10-20 02:27:00,
2013-10-19 22:42:00,48.2,46.0,29.79,ENE,66,0.0,-999.0,91,-99.99,,,0.11,weatherlink.com 1.10,2013-10-20 02:42:00,
2013-10-19 22:57:00,47.6,45.0,29.80,ENE,66,0.0,-999.0,91,-99.99,,,0.11,weatherlink.com 1.10,2013-10-20 02:57:00,
2013-10-19 23:12:00,47.7,46.0,29.80,WSW,241,1.0,-999.0,92,-99.99,,,0.11,weatherlink.com 1.10,2013-10-20 03:12:00,
2013-10-19 23:27:00,48.8,47.0,29.80,WSW,237,0.0,-999.0,93,-99.99,,,0.11,weatherlink.com 1.10,2013-10-20 03:27:00,
2013-10-19 23:42:00,48.9,47.0,29.81,West,276,2.0,-999.0,92,-99.99,,,0.11,weatherlink.com 1.10,2013-10-20 03:42:00,
2013-10-19 23:57:00,49.0,46.0,29.82,SSW,200,2.0,-999.0,89,-99.99,,,0.11,weatherlink.com 1.10,2013-10-20 03:57:00,